Location: Prague
(50.0830°N, 14.4670°E)
Time: 14:41:19
(UTC+01:00)

MOZHAYETS 4 - Visible Passes

Search period start: 25 March 2023 00:00
Search period end: 04 April 2023 01:00
Orbit: 658 x 676 km, 98.2° (Epoch: 25 March)

Date Brightness Start Highest point End Pass type
(mag) Time Alt. Az. Time Alt. Az. Time Alt. Az.
25 Mar 9.7 01:45:02 26° NNE 01:45:02 26° NNE 01:47:39 10° N visible
25 Mar 9.5 03:23:10 20° NW 03:23:10 20° NW 03:24:47 10° NNW visible
26 Mar 10.7 00:38:53 10° NE 00:39:09 10° NE 00:39:27 10° NE visible
26 Mar 9.1 03:17:01 35° N 03:17:01 35° N 03:19:45 10° N visible
26 Mar 9.8 04:55:09 13° NW 04:55:09 13° NW 04:55:52 10° NW visible
27 Mar 10.2 02:10:52 18° NE 02:10:52 18° NE 02:13:31 10° NNE visible
27 Mar 8.9 03:49:00 33° NNW 03:49:00 33° NNW 03:51:36 10° NNW visible
28 Mar 9.5 02:42:50 29° NE 02:42:50 29° NE 02:45:59 10° N visible
28 Mar 9.1 04:20:58 24° NW 04:20:58 24° NW 04:23:10 10° NNW visible
29 Mar 8.7 03:14:48 43° NNE 03:14:48 43° NNE 03:18:05 10° N visible
29 Mar 9.6 04:52:56 15° WNW 04:52:56 15° WNW 04:54:17 10° NW visible
30 Mar 10.1 02:08:37 17° ENE 02:08:52 17° ENE 02:11:48 10° NNE visible
30 Mar 8.4 03:46:45 44° NNW 03:46:45 44° NNW 03:49:56 10° NNW visible
31 Mar 9.4 02:40:34 29° ENE 02:40:34 29° ENE 02:44:17 10° N visible
31 Mar 8.8 04:18:42 30° WNW 04:18:42 30° WNW 04:21:31 10° NNW visible
01 Apr 8.5 03:12:32 50° NE 03:12:32 50° NE 03:16:23 10° N visible
01 Apr 9.4 04:50:39 18° WNW 04:50:39 18° WNW 04:52:39 10° NW visible
02 Apr 10.1 02:06:20 16° ENE 02:07:10 17° ENE 02:10:02 10° NNE visible
02 Apr 7.9 03:44:28 59° NW 03:44:28 59° NW 03:48:14 10° NNW visible
03 Apr 9.4 02:38:16 28° ENE 02:38:37 29° ENE 02:42:31 10° N visible
03 Apr 8.4 04:16:23 35° WNW 04:16:23 35° WNW 04:19:48 10° NNW visible
